owner,sensor,date,latitude,longitude,vertical_datum,wind_speed,wind_to_direction,wind_speed_of_gust,qcFlag 
COMPS,ioos:station:USF.COMPS:ARP:1,2017-12-01T00:00:00Z,28.4330,-82.6670,10.0,0.54,87.44,0.97,'1111122,1111122,1111122' 
COMPS,ioos:station:USF.COMPS:ARP:1,2017-12-01T00:06:00Z,28.4330,-82.6670,10.0,0.37,81.89,0.58,'1111122,1111122,1111122' 
COMPS,ioos:station:USF.COMPS:ARP:1,2017-12-01T00:12:00Z,28.4330,-82.6670,10.0,0.43,95.65,0.78,'1111122,1111122,1111122' 
COMPS,ioos:station:USF.COMPS:ARP:1,2017-12-01T00:18:00Z,28.4330,-82.6670,10.0,0.47,83.33,0.78,'1111122,1111122,1111122' 
COMPS,ioos:station:USF.COMPS:ARP:1,2017-12-01T00:24:00Z,28.4330,-82.6670,10.0,0.02,65.26,0.29,'1111122,1111122,1111122' 
COMPS,ioos:station:USF.COMPS:ARP:1,2017-12-01T00:30:00Z,28.4330,-82.6670,10.0,0.01,56.44,0.29,'1111122,1111122,1111122' 
COMPS,ioos:station:USF.COMPS:ARP:1,2017-12-01T00:36:00Z,28.4330,-82.6670,10.0,0.32,90.39,0.58,'1111122,1111122,1111122' 
COMPS,ioos:station:USF.COMPS:ARP:1,2017-12-01T00:42:00Z,28.4330,-82.6670,10.0,0.57,85.96,0.78,'1111122,1111122,1111122' 
COMPS,ioos:station:USF.COMPS:ARP:1,2017-12-01T00:48:00Z,28.4330,-82.6670,10.0,0.71,81.58,1.17,'1111122,1111122,1111122' 
COMPS,ioos:station:USF.COMPS:ARP:1,2017-12-01T00:54:00Z,28.4330,-82.6670,10.0,0.79,85.11,1.27,'1111122,1111122,1111122' 
COMPS,ioos:station:USF.COMPS:ARP:1,2017-12-01T01:00:00Z,28.4330,-82.6670,10.0,1.05,75.03,1.56,'1111122,1111122,1111122' 
COMPS,ioos:station:USF.COMPS:ARP:1,2017-12-01T01:06:00Z,28.4330,-82.6670,10.0,1.05,77.64,1.37,'1111122,1111122,1111122' 
COMPS,ioos:station:USF.COMPS:ARP:1,2017-12-01T01:12:00Z,28.4330,-82.6670,10.0,1.32,81.08,1.66,'1111122,1111122,1111122' 
COMPS,ioos:station:USF.COMPS:ARP:1,2017-12-01T01:18:00Z,28.4330,-82.6670,10.0,1.58,82.11,2.54,'1111122,1111122,1111122' 
COMPS,ioos:station:USF.COMPS:ARP:1,2017-12-01T01:24:00Z,28.4330,-82.6670,10.0,1.78,77.93,2.64,'1111122,1111122,1111122' 
COMPS,ioos:station:USF.COMPS:ARP:1,2017-12-01T01:30:00Z,28.4330,-82.6670,10.0,1.86,87.04,2.74,'1111122,1111122,1111122' 
COMPS,ioos:station:USF.COMPS:ARP:1,2017-12-01T01:36:00Z,28.4330,-82.6670,10.0,2.07,90.33,2.54,'1111122,1111122,1111122' 
COMPS,ioos:station:USF.COMPS:ARP:1,2017-12-01T01:42:00Z,28.4330,-82.6670,10.0,2.04,94.56,3.03,'1111122,1111122,1111122' 
COMPS,ioos:station:USF.COMPS:ARP:1,2017-12-01T01:48:00Z,28.4330,-82.6670,10.0,1.96,85.9,2.64,'1111122,1111122,1111122' 
COMPS,ioos:station:USF.COMPS:ARP:1,2017-12-01T01:54:00Z,28.4330,-82.6670,10.0,2.18,86.24,3.03,'1111122,1111122,1111122' 
COMPS,ioos:station:USF.COMPS:ARP:1,2017-12-01T02:00:00Z,28.4330,-82.6670,10.0,2.36,86.51,3.82,'1111122,1111122,1111122' 
COMPS,ioos:station:USF.COMPS:ARP:1,2017-12-01T02:06:00Z,28.4330,-82.6670,10.0,2.25,90.85,3.42,'1111122,1111122,1111122' 
COMPS,ioos:station:USF.COMPS:ARP:1,2017-12-01T02:12:00Z,28.4330,-82.6670,10.0,2.49,84.82,3.42,'1111122,1111122,1111122' 
COMPS,ioos:station:USF.COMPS:ARP:1,2017-12-01T02:18:00Z,28.4330,-82.6670,10.0,2.26,86.9,3.13,'1111122,1111122,1111122' 
COMPS,ioos:station:USF.COMPS:ARP:1,2017-12-01T02:24:00Z,28.4330,-82.6670,10.0,2.2,94.25,3.33,'1111122,1111122,1111122' 
COMPS,ioos:station:USF.COMPS:ARP:1,2017-12-01T02:30:00Z,28.4330,-82.6670,10.0,2.22,87.13,2.84,'1111122,1111122,1111122' 
COMPS,ioos:station:USF.COMPS:ARP:1,2017-12-01T02:36:00Z,28.4330,-82.6670,10.0,2.15,87.83,2.93,'1111122,1111122,1111122' 
COMPS,ioos:station:USF.COMPS:ARP:1,2017-12-01T02:42:00Z,28.4330,-82.6670,10.0,1.98,86.55,2.45,'1111122,1111122,1111122' 
COMPS,ioos:station:USF.COMPS:ARP:1,2017-12-01T02:48:00Z,28.4330,-82.6670,10.0,1.9,87.45,3.03,'1111122,1111122,1111122' 
COMPS,ioos:station:USF.COMPS:ARP:1,2017-12-01T02:54:00Z,28.4330,-82.6670,10.0,1.56,87.31,2.54,'1111122,1111122,1111122' 
COMPS,ioos:station:USF.COMPS:ARP:1,2017-12-01T03:00:00Z,28.4330,-82.6670,10.0,1.66,83.92,2.25,'1111122,1111122,1111122' 
COMPS,ioos:station:USF.COMPS:ARP:1,2017-12-01T03:06:00Z,28.4330,-82.6670,10.0,1.79,87.76,2.54,'1111122,1111122,1111122' 
COMPS,ioos:station:USF.COMPS:ARP:1,2017-12-01T03:12:00Z,28.4330,-82.6670,10.0,1.83,89.46,2.35,'1111122,1111122,1111122' 
COMPS,ioos:station:USF.COMPS:ARP:1,2017-12-01T03:18:00Z,28.4330,-82.6670,10.0,1.74,91.29,2.25,'1111122,1111122,1111122' 
COMPS,ioos:station:USF.COMPS:ARP:1,2017-12-01T03:24:00Z,28.4330,-82.6670,10.0,1.88,86.15,2.64,'1111122,1111122,1111122' 
COMPS,ioos:station:USF.COMPS:ARP:1,2017-12-01T03:30:00Z,28.4330,-82.6670,10.0,1.72,89.82,2.35,'1111122,1111122,1111122' 
COMPS,ioos:station:USF.COMPS:ARP:1,2017-12-01T03:36:00Z,28.4330,-82.6670,10.0,1.76,88.95,2.45,'1111122,1111122,1111122' 
COMPS,ioos:station:USF.COMPS:ARP:1,2017-12-01T03:42:00Z,28.4330,-82.6670,10.0,1.73,90.75,2.35,'1111122,1111122,1111122' 
COMPS,ioos:station:USF.COMPS:ARP:1,2017-12-01T03:48:00Z,28.4330,-82.6670,10.0,1.72,89.64,2.45,'1111122,1111122,1111122' 
COMPS,ioos:station:USF.COMPS:ARP:1,2017-12-01T03:54:00Z,28.4330,-82.6670,10.0,1.68,85.25,2.45,'1111122,1111122,1111122' 
COMPS,ioos:station:USF.COMPS:ARP:1,2017-12-01T04:00:00Z,28.4330,-82.6670,10.0,1.97,92.62,2.54,'1111122,1111122,1111122' 
COMPS,ioos:station:USF.COMPS:ARP:1,2017-12-01T04:06:00Z,28.4330,-82.6670,10.0,2.12,96.98,3.03,'1111122,1111122,1111122' 
COMPS,ioos:station:USF.COMPS:ARP:1,2017-12-01T04:12:00Z,28.4330,-82.6670,10.0,2.23,92.55,3.03,'1111122,1111122,1111122' 
COMPS,ioos:station:USF.COMPS:ARP:1,2017-12-01T04:18:00Z,28.4330,-82.6670,10.0,2.15,95.77,3.13,'1111122,1111122,1111122' 
COMPS,ioos:station:USF.COMPS:ARP:1,2017-12-01T04:24:00Z,28.4330,-82.6670,10.0,2.31,97.29,3.52,'1111122,1111122,1111122' 
COMPS,ioos:station:USF.COMPS:ARP:1,2017-12-01T04:30:00Z,28.4330,-82.6670,10.0,2.45,98.44,3.62,'1111122,1111122,1111122' 
COMPS,ioos:station:USF.COMPS:ARP:1,2017-12-01T04:36:00Z,28.4330,-82.6670,10.0,2.06,97.88,2.93,'1111122,1111122,1111122' 
COMPS,ioos:station:USF.COMPS:ARP:1,2017-12-01T04:42:00Z,28.4330,-82.6670,10.0,2.3,94.45,3.62,'1111122,1111122,1111122' 
COMPS,ioos:station:USF.COMPS:ARP:1,2017-12-01T04:48:00Z,28.4330,-82.6670,10.0,2.07,88.13,2.93,'1111122,1111122,1111122' 
COMPS,ioos:station:USF.COMPS:ARP:1,2017-12-01T04:54:00Z,28.4330,-82.6670,10.0,2.17,85.36,3.33,'1111122,1111122,1111122' 
COMPS,ioos:station:USF.COMPS:ARP:1,2017-12-01T05:00:00Z,28.4330,-82.6670,10.0,2.02,94.21,2.93,'1111122,1111122,1111122' 
COMPS,ioos:station:USF.COMPS:ARP:1,2017-12-01T05:06:00Z,28.4330,-82.6670,10.0,2.22,94.7,3.62,'1111122,1111122,1111122' 
COMPS,ioos:station:USF.COMPS:ARP:1,2017-12-01T05:12:00Z,28.4330,-82.6670,10.0,2.18,79.14,3.03,'1111122,1111122,1111122' 
COMPS,ioos:station:USF.COMPS:ARP:1,2017-12-01T05:18:00Z,28.4330,-82.6670,10.0,1.95,91.28,2.93,'1111122,1111122,1111122' 
COMPS,ioos:station:USF.COMPS:ARP:1,2017-12-01T05:24:00Z,28.4330,-82.6670,10.0,1.79,86.41,2.45,'1111122,1111122,1111122' 
COMPS,ioos:station:USF.COMPS:ARP:1,2017-12-01T05:30:00Z,28.4330,-82.6670,10.0,1.86,89.32,2.74,'1111122,1111122,1111122' 
COMPS,ioos:station:USF.COMPS:ARP:1,2017-12-01T05:36:00Z,28.4330,-82.6670,10.0,1.84,88.62,2.84,'1111122,1111122,1111122' 
COMPS,ioos:station:USF.COMPS:ARP:1,2017-12-01T05:42:00Z,28.4330,-82.6670,10.0,1.84,89.41,2.45,'1111122,1111122,1111122' 
COMPS,ioos:station:USF.COMPS:ARP:1,2017-12-01T05:48:00Z,28.4330,-82.6670,10.0,1.82,87.8,2.64,'1111122,1111122,1111122' 
COMPS,ioos:station:USF.COMPS:ARP:1,2017-12-01T05:54:00Z,28.4330,-82.6670,10.0,1.57,93.45,2.15,'1111122,1111122,1111122' 
COMPS,ioos:station:USF.COMPS:ARP:1,2017-12-01T06:00:00Z,28.4330,-82.6670,10.0,1.36,84.86,2.25,'1111122,1111122,1111122' 
COMPS,ioos:station:USF.COMPS:ARP:1,2017-12-01T06:06:00Z,28.4330,-82.6670,10.0,1.76,74.83,2.35,'1111122,1111122,1111122' 
COMPS,ioos:station:USF.COMPS:ARP:1,2017-12-01T06:12:00Z,28.4330,-82.6670,10.0,1.76,92.82,2.45,'1111122,1111122,1111122' 
COMPS,ioos:station:USF.COMPS:ARP:1,2017-12-01T06:18:00Z,28.4330,-82.6670,10.0,1.77,91.02,2.84,'1111122,1111122,1111122' 
COMPS,ioos:station:USF.COMPS:ARP:1,2017-12-01T06:24:00Z,28.4330,-82.6670,10.0,1.68,97.63,2.35,'1111122,1111122,1111122' 
COMPS,ioos:station:USF.COMPS:ARP:1,2017-12-01T06:30:00Z,28.4330,-82.6670,10.0,1.61,91.99,2.25,'1111122,1111122,1111122' 
COMPS,ioos:station:USF.COMPS:ARP:1,2017-12-01T06:36:00Z,28.4330,-82.6670,10.0,1.65,92.58,2.74,'1111122,1111122,1111122' 
COMPS,ioos:station:USF.COMPS:ARP:1,2017-12-01T06:42:00Z,28.4330,-82.6670,10.0,1.43,99.03,2.05,'1111122,1111122,1111122' 
COMPS,ioos:station:USF.COMPS:ARP:1,2017-12-01T06:48:00Z,28.4330,-82.6670,10.0,1.57,98.42,2.45,'1111122,1111122,1111122' 
COMPS,ioos:station:USF.COMPS:ARP:1,2017-12-01T06:54:00Z,28.4330,-82.6670,10.0,1.47,97.81,2.15,'1111122,1111122,1111122' 
COMPS,ioos:station:USF.COMPS:ARP:1,2017-12-01T07:00:00Z,28.4330,-82.6670,10.0,1.3,96.22,1.86,'1111122,1111122,1111122' 
COMPS,ioos:station:USF.COMPS:ARP:1,2017-12-01T07:06:00Z,28.4330,-82.6670,10.0,1.54,98.03,2.15,'1111122,1111122,1111122' 
COMPS,ioos:station:USF.COMPS:ARP:1,2017-12-01T07:12:00Z,28.4330,-82.6670,10.0,1.58,95.2,2.45,'1111122,1111122,1111122' 
COMPS,ioos:station:USF.COMPS:ARP:1,2017-12-01T07:18:00Z,28.4330,-82.6670,10.0,1.41,88.18,2.15,'1111122,1111122,1111122' 
COMPS,ioos:station:USF.COMPS:ARP:1,2017-12-01T07:24:00Z,28.4330,-82.6670,10.0,1.22,95.69,1.86,'1111122,1111122,1111122' 
COMPS,ioos:station:USF.COMPS:ARP:1,2017-12-01T07:30:00Z,28.4330,-82.6670,10.0,1.47,104.87,2.15,'1111122,1111122,1111122' 
COMPS,ioos:station:USF.COMPS:ARP:1,2017-12-01T07:36:00Z,28.4330,-82.6670,10.0,1.45,93.75,2.05,'1111122,1111122,1111122' 
COMPS,ioos:station:USF.COMPS:ARP:1,2017-12-01T07:42:00Z,28.4330,-82.6670,10.0,1.57,94.25,2.15,'1111122,1111122,1111122' 
COMPS,ioos:station:USF.COMPS:ARP:1,2017-12-01T07:48:00Z,28.4330,-82.6670,10.0,1.32,84.96,1.66,'1111122,1111122,1111122' 
COMPS,ioos:station:USF.COMPS:ARP:1,2017-12-01T07:54:00Z,28.4330,-82.6670,10.0,1.24,86.67,1.76,'1111122,1111122,1111122' 
COMPS,ioos:station:USF.COMPS:ARP:1,2017-12-01T08:00:00Z,28.4330,-82.6670,10.0,1.14,88.52,1.56,'1111122,1111122,1111122' 
COMPS,ioos:station:USF.COMPS:ARP:1,2017-12-01T08:06:00Z,28.4330,-82.6670,10.0,1.05,84.15,1.37,'1111122,1111122,1111122' 
COMPS,ioos:station:USF.COMPS:ARP:1,2017-12-01T08:12:00Z,28.4330,-82.6670,10.0,1.21,85.46,1.46,'1111122,1111122,1111122' 
COMPS,ioos:station:USF.COMPS:ARP:1,2017-12-01T08:18:00Z,28.4330,-82.6670,10.0,1.23,95.42,1.66,'1111122,1111122,1111122' 
COMPS,ioos:station:USF.COMPS:ARP:1,2017-12-01T08:24:00Z,28.4330,-82.6670,10.0,1.32,96.75,2.15,'1111122,1111122,1111122' 
COMPS,ioos:station:USF.COMPS:ARP:1,2017-12-01T08:30:00Z,28.4330,-82.6670,10.0,1.21,70.44,1.86,'1111122,1111122,1111122' 
COMPS,ioos:station:USF.COMPS:ARP:1,2017-12-01T08:36:00Z,28.4330,-82.6670,10.0,1.4,104.66,2.35,'1111122,1111122,1111122' 
COMPS,ioos:station:USF.COMPS:ARP:1,2017-12-01T08:42:00Z,28.4330,-82.6670,10.0,1.22,89.33,1.86,'1111122,1111122,1111122' 
COMPS,ioos:station:USF.COMPS:ARP:1,2017-12-01T08:48:00Z,28.4330,-82.6670,10.0,1.04,57.19,1.56,'1111122,1111122,1111122' 
COMPS,ioos:station:USF.COMPS:ARP:1,2017-12-01T08:54:00Z,28.4330,-82.6670,10.0,0.62,51.86,1.17,'1111122,1111122,1111122' 
COMPS,ioos:station:USF.COMPS:ARP:1,2017-12-01T09:00:00Z,28.4330,-82.6670,10.0,0.63,71.1,1.17,'1111122,1111122,1111122' 
COMPS,ioos:station:USF.COMPS:ARP:1,2017-12-01T09:06:00Z,28.4330,-82.6670,10.0,1.47,100.79,1.86,'1111122,1111122,1111122' 
COMPS,ioos:station:USF.COMPS:ARP:1,2017-12-01T09:12:00Z,28.4330,-82.6670,10.0,1.48,102.38,1.76,'1111122,1111122,1111122' 
COMPS,ioos:station:USF.COMPS:ARP:1,2017-12-01T09:18:00Z,28.4330,-82.6670,10.0,1.52,87.93,2.25,'1111122,1111122,1111122' 
COMPS,ioos:station:USF.COMPS:ARP:1,2017-12-01T09:24:00Z,28.4330,-82.6670,10.0,1.91,105.45,2.64,'1111122,1111122,1111122' 
COMPS,ioos:station:USF.COMPS:ARP:1,2017-12-01T09:30:00Z,28.4330,-82.6670,10.0,1.73,107.43,2.45,'1111122,1111122,1111122' 
COMPS,ioos:station:USF.COMPS:ARP:1,2017-12-01T09:36:00Z,28.4330,-82.6670,10.0,1.15,80.48,1.66,'1111122,1111122,1111122' 
COMPS,ioos:station:USF.COMPS:ARP:1,2017-12-01T09:42:00Z,28.4330,-82.6670,10.0,1.29,78.35,1.66,'1111122,1111122,1111122' 
COMPS,ioos:station:USF.COMPS:ARP:1,2017-12-01T09:48:00Z,28.4330,-82.6670,10.0,1.04,114.83,1.66,'1111122,1111122,1111122' 
COMPS,ioos:station:USF.COMPS:ARP:1,2017-12-01T09:54:00Z,28.4330,-82.6670,10.0,0.36,92.43,0.78,'1111122,1111122,1111122' 
COMPS,ioos:station:USF.COMPS:ARP:1,2017-12-01T10:00:00Z,28.4330,-82.6670,10.0,0.14,82.5,0.58,'1111122,1111122,1111122' 
COMPS,ioos:station:USF.COMPS:ARP:1,2017-12-01T10:06:00Z,28.4330,-82.6670,10.0,0.69,92.51,1.07,'1111122,1111122,1111122' 
COMPS,ioos:station:USF.COMPS:ARP:1,2017-12-01T10:12:00Z,28.4330,-82.6670,10.0,0.09,20.33,0.29,'1111122,1111122,1111122' 
COMPS,ioos:station:USF.COMPS:ARP:1,2017-12-01T10:18:00Z,28.4330,-82.6670,10.0,0.03,113.93,0.49,'1111122,1111122,1111122' 
COMPS,ioos:station:USF.COMPS:ARP:1,2017-12-01T10:24:00Z,28.4330,-82.6670,10.0,0.41,117.24,0.58,'1111122,1111122,1111122' 
COMPS,ioos:station:USF.COMPS:ARP:1,2017-12-01T10:30:00Z,28.4330,-82.6670,10.0,0.45,93.78,0.78,'1111122,1111122,1111122' 
COMPS,ioos:station:USF.COMPS:ARP:1,2017-12-01T10:36:00Z,28.4330,-82.6670,10.0,0.64,101.42,1.17,'1111122,1111122,1111122' 
COMPS,ioos:station:USF.COMPS:ARP:1,2017-12-01T10:42:00Z,28.4330,-82.6670,10.0,1.2,111.31,1.56,'1111122,1111122,1111122' 
COMPS,ioos:station:USF.COMPS:ARP:1,2017-12-01T10:48:00Z,28.4330,-82.6670,10.0,1.12,101.28,1.27,'1111122,1111122,1111122' 
COMPS,ioos:station:USF.COMPS:ARP:1,2017-12-01T10:54:00Z,28.4330,-82.6670,10.0,1.39,93.63,1.86,'1111122,1111122,1111122' 
COMPS,ioos:station:USF.COMPS:ARP:1,2017-12-01T11:00:00Z,28.4330,-82.6670,10.0,1.28,94.37,1.46,'1111122,1111122,1111122' 
COMPS,ioos:station:USF.COMPS:ARP:1,2017-12-01T11:06:00Z,28.4330,-82.6670,10.0,1.03,100.11,1.37,'1111122,1111122,1111122' 
COMPS,ioos:station:USF.COMPS:ARP:1,2017-12-01T11:12:00Z,28.4330,-82.6670,10.0,0.81,103.26,1.17,'1111122,1111122,1111122' 
COMPS,ioos:station:USF.COMPS:ARP:1,2017-12-01T11:18:00Z,28.4330,-82.6670,10.0,0.26,88.72,0.58,'1111122,1111122,1111122' 
COMPS,ioos:station:USF.COMPS:ARP:1,2017-12-01T11:24:00Z,28.4330,-82.6670,10.0,0.17,89.12,0.78,'1111122,1111122,1111122' 
COMPS,ioos:station:USF.COMPS:ARP:1,2017-12-01T11:30:00Z,28.4330,-82.6670,10.0,1.42,94.41,2.05,'1111122,1111122,1111122' 
COMPS,ioos:station:USF.COMPS:ARP:1,2017-12-01T11:36:00Z,28.4330,-82.6670,10.0,1.7,94.95,2.25,'1111122,1111122,1111122' 
COMPS,ioos:station:USF.COMPS:ARP:1,2017-12-01T11:42:00Z,28.4330,-82.6670,10.0,1.52,88.01,2.15,'1111122,1111122,1111122' 
COMPS,ioos:station:USF.COMPS:ARP:1,2017-12-01T11:48:00Z,28.4330,-82.6670,10.0,2.07,106.04,2.74,'1111122,1111122,1111122' 
COMPS,ioos:station:USF.COMPS:ARP:1,2017-12-01T11:54:00Z,28.4330,-82.6670,10.0,2.85,109.71,3.91,'1111122,1111122,1111122' 
COMPS,ioos:station:USF.COMPS:ARP:1,2017-12-01T12:00:00Z,28.4330,-82.6670,10.0,1.79,98.54,3.72,'1111122,1111122,1111122' 
COMPS,ioos:station:USF.COMPS:ARP:1,2017-12-01T12:06:00Z,28.4330,-82.6670,10.0,1.6,84.57,2.74,'1111122,1111122,1111122' 
COMPS,ioos:station:USF.COMPS:ARP:1,2017-12-01T12:12:00Z,28.4330,-82.6670,10.0,1.0,82.75,2.05,'1111122,1111122,1111122' 
COMPS,ioos:station:USF.COMPS:ARP:1,2017-12-01T12:18:00Z,28.4330,-82.6670,10.0,1.09,74.34,1.56,'1111122,1111122,1111122' 
COMPS,ioos:station:USF.COMPS:ARP:1,2017-12-01T12:24:00Z,28.4330,-82.6670,10.0,1.66,72.87,2.05,'1111122,1111122,1111122' 
COMPS,ioos:station:USF.COMPS:ARP:1,2017-12-01T12:30:00Z,28.4330,-82.6670,10.0,1.49,74.56,1.95,'1111122,1111122,1111122' 
COMPS,ioos:station:USF.COMPS:ARP:1,2017-12-01T12:36:00Z,28.4330,-82.6670,10.0,1.31,68.24,1.66,'1111122,1111122,1111122' 
COMPS,ioos:station:USF.COMPS:ARP:1,2017-12-01T12:42:00Z,28.4330,-82.6670,10.0,1.03,69.05,1.46,'1111122,1111122,1111122' 
COMPS,ioos:station:USF.COMPS:ARP:1,2017-12-01T12:48:00Z,28.4330,-82.6670,10.0,1.08,78.08,1.46,'1111122,1111122,1111122' 
COMPS,ioos:station:USF.COMPS:ARP:1,2017-12-01T12:54:00Z,28.4330,-82.6670,10.0,0.79,87.02,1.37,'1111122,1111122,1111122' 
COMPS,ioos:station:USF.COMPS:ARP:1,2017-12-01T13:00:00Z,28.4330,-82.6670,10.0,0.2,103.24,0.68,'1111122,1111122,1111122' 
COMPS,ioos:station:USF.COMPS:ARP:1,2017-12-01T13:12:00Z,28.4330,-82.6670,10.0,0.01,31.89,0.19,'1111122,1111122,1111122' 
COMPS,ioos:station:USF.COMPS:ARP:1,2017-12-01T13:30:00Z,28.4330,-82.6670,10.0,0.08,77.75,0.39,'1111122,1111122,1111122' 
COMPS,ioos:station:USF.COMPS:ARP:1,2017-12-01T13:36:00Z,28.4330,-82.6670,10.0,0.83,75.21,1.46,'1111122,1111122,1111122' 
COMPS,ioos:station:USF.COMPS:ARP:1,2017-12-01T13:42:00Z,28.4330,-82.6670,10.0,1.01,84.26,1.27,'1111122,1111122,1111122' 
COMPS,ioos:station:USF.COMPS:ARP:1,2017-12-01T13:48:00Z,28.4330,-82.6670,10.0,0.9,76.11,1.46,'1111122,1111122,1111122' 
COMPS,ioos:station:USF.COMPS:ARP:1,2017-12-01T13:54:00Z,28.4330,-82.6670,10.0,1.09,78.07,1.46,'1111122,1111122,1111122' 
COMPS,ioos:station:USF.COMPS:ARP:1,2017-12-01T14:00:00Z,28.4330,-82.6670,10.0,0.94,79.46,1.76,'1111122,1111122,1111122' 
COMPS,ioos:station:USF.COMPS:ARP:1,2017-12-01T14:06:00Z,28.4330,-82.6670,10.0,0.79,328.52,2.45,'1111122,1111122,1111122' 
COMPS,ioos:station:USF.COMPS:ARP:1,2017-12-01T14:12:00Z,28.4330,-82.6670,10.0,0.94,317.77,1.66,'1111122,1111122,1111122' 
COMPS,ioos:station:USF.COMPS:ARP:1,2017-12-01T14:18:00Z,28.4330,-82.6670,10.0,0.34,51.1,1.27,'1111122,1111122,1111122' 
COMPS,ioos:station:USF.COMPS:ARP:1,2017-12-01T14:24:00Z,28.4330,-82.6670,10.0,0.34,56.08,0.97,'1111122,1111122,1111122' 
COMPS,ioos:station:USF.COMPS:ARP:1,2017-12-01T14:30:00Z,28.4330,-82.6670,10.0,0.51,71.59,1.46,'1111122,1111122,1111122' 
COMPS,ioos:station:USF.COMPS:ARP:1,2017-12-01T14:36:00Z,28.4330,-82.6670,10.0,0.59,90.47,1.17,'1111122,1111122,1111122' 
COMPS,ioos:station:USF.COMPS:ARP:1,2017-12-01T14:42:00Z,28.4330,-82.6670,10.0,0.53,294.91,1.07,'1111122,1111122,1111122' 
COMPS,ioos:station:USF.COMPS:ARP:1,2017-12-01T14:48:00Z,28.4330,-82.6670,10.0,0.53,290.06,0.88,'1111122,1111122,1111122' 
COMPS,ioos:station:USF.COMPS:ARP:1,2017-12-01T14:54:00Z,28.4330,-82.6670,10.0,1.51,306.22,1.95,'1111122,1111122,1111122' 
COMPS,ioos:station:USF.COMPS:ARP:1,2017-12-01T15:00:00Z,28.4330,-82.6670,10.0,1.33,294.89,1.76,'1111122,1111122,1111122' 
COMPS,ioos:station:USF.COMPS:ARP:1,2017-12-01T15:06:00Z,28.4330,-82.6670,10.0,1.39,299.59,1.86,'1111122,1111122,1111122' 
COMPS,ioos:station:USF.COMPS:ARP:1,2017-12-01T15:12:00Z,28.4330,-82.6670,10.0,1.2,294.83,1.86,'1111122,1111122,1111122' 
COMPS,ioos:station:USF.COMPS:ARP:1,2017-12-01T15:18:00Z,28.4330,-82.6670,10.0,0.22,302.99,0.78,'1111122,1111122,1111122' 
COMPS,ioos:station:USF.COMPS:ARP:1,2017-12-01T15:24:00Z,28.4330,-82.6670,10.0,0.77,324.8,1.56,'1111122,1111122,1111122' 
COMPS,ioos:station:USF.COMPS:ARP:1,2017-12-01T15:30:00Z,28.4330,-82.6670,10.0,0.83,311.45,1.46,'1111122,1111122,1111122' 
COMPS,ioos:station:USF.COMPS:ARP:1,2017-12-01T15:36:00Z,28.4330,-82.6670,10.0,1.39,312.76,2.15,'1111122,1111122,1111122' 
COMPS,ioos:station:USF.COMPS:ARP:1,2017-12-01T15:42:00Z,28.4330,-82.6670,10.0,2.39,306.76,2.93,'1111122,1111122,1111122' 
COMPS,ioos:station:USF.COMPS:ARP:1,2017-12-01T15:48:00Z,28.4330,-82.6670,10.0,2.18,304.58,2.64,'1111122,1111122,1111122' 
COMPS,ioos:station:USF.COMPS:ARP:1,2017-12-01T15:54:00Z,28.4330,-82.6670,10.0,2.95,304.25,3.33,'1111122,1111122,1111122' 
COMPS,ioos:station:USF.COMPS:ARP:1,2017-12-01T16:00:00Z,28.4330,-82.6670,10.0,2.94,303.9,3.52,'1111122,1111122,1111122' 
COMPS,ioos:station:USF.COMPS:ARP:1,2017-12-01T16:06:00Z,28.4330,-82.6670,10.0,1.79,306.95,2.54,'1111122,1111122,1111122' 
COMPS,ioos:station:USF.COMPS:ARP:1,2017-12-01T16:12:00Z,28.4330,-82.6670,10.0,1.33,307.34,2.35,'1111122,1111122,1111122' 
COMPS,ioos:station:USF.COMPS:ARP:1,2017-12-01T16:18:00Z,28.4330,-82.6670,10.0,2.41,305.11,3.62,'1111122,1111122,1111122' 
COMPS,ioos:station:USF.COMPS:ARP:1,2017-12-01T16:24:00Z,28.4330,-82.6670,10.0,2.38,306.03,3.33,'1111122,1111122,1111122' 
COMPS,ioos:station:USF.COMPS:ARP:1,2017-12-01T16:30:00Z,28.4330,-82.6670,10.0,1.41,309.92,2.54,'1111122,1111122,1111122' 
COMPS,ioos:station:USF.COMPS:ARP:1,2017-12-01T16:36:00Z,28.4330,-82.6670,10.0,1.58,320.67,2.54,'1111122,1111122,1111122' 
COMPS,ioos:station:USF.COMPS:ARP:1,2017-12-01T16:42:00Z,28.4330,-82.6670,10.0,1.52,323.08,2.64,'1111122,1111122,1111122' 
COMPS,ioos:station:USF.COMPS:ARP:1,2017-12-01T16:48:00Z,28.4330,-82.6670,10.0,1.94,313.75,3.03,'1111122,1111122,1111122' 
COMPS,ioos:station:USF.COMPS:ARP:1,2017-12-01T16:54:00Z,28.4330,-82.6670,10.0,2.01,313.27,3.42,'1111122,1111122,1111122' 
COMPS,ioos:station:USF.COMPS:ARP:1,2017-12-01T17:00:00Z,28.4330,-82.6670,10.0,1.74,323.03,3.13,'1111122,1111122,1111122' 
COMPS,ioos:station:USF.COMPS:ARP:1,2017-12-01T17:06:00Z,28.4330,-82.6670,10.0,1.4,320.61,3.33,'1111122,1111122,1111122' 
COMPS,ioos:station:USF.COMPS:ARP:1,2017-12-01T17:12:00Z,28.4330,-82.6670,10.0,1.15,327.62,2.35,'1111122,1111122,1111122' 
COMPS,ioos:station:USF.COMPS:ARP:1,2017-12-01T17:18:00Z,28.4330,-82.6670,10.0,1.8,314.13,2.84,'1111122,1111122,1111122' 
COMPS,ioos:station:USF.COMPS:ARP:1,2017-12-01T17:24:00Z,28.4330,-82.6670,10.0,1.92,314.79,3.13,'1111122,1111122,1111122' 
COMPS,ioos:station:USF.COMPS:ARP:1,2017-12-01T17:30:00Z,28.4330,-82.6670,10.0,2.2,315.62,3.72,'1111122,1111122,1111122' 
COMPS,ioos:station:USF.COMPS:ARP:1,2017-12-01T17:36:00Z,28.4330,-82.6670,10.0,1.58,316.33,3.33,'1111122,1111122,1111122' 
COMPS,ioos:station:USF.COMPS:ARP:1,2017-12-01T17:42:00Z,28.4330,-82.6670,10.0,1.87,312.6,3.13,'1111122,1111122,1111122' 
COMPS,ioos:station:USF.COMPS:ARP:1,2017-12-01T17:48:00Z,28.4330,-82.6670,10.0,1.38,331.23,2.54,'1111122,1111122,1111122' 
COMPS,ioos:station:USF.COMPS:ARP:1,2017-12-01T17:54:00Z,28.4330,-82.6670,10.0,1.25,321.96,2.54,'1111122,1111122,1111122' 
COMPS,ioos:station:USF.COMPS:ARP:1,2017-12-01T18:00:00Z,28.4330,-82.6670,10.0,1.29,317.83,2.35,'1111122,1111122,1111122' 
COMPS,ioos:station:USF.COMPS:ARP:1,2017-12-01T18:06:00Z,28.4330,-82.6670,10.0,1.44,321.43,2.93,'1111122,1111122,1111122' 
COMPS,ioos:station:USF.COMPS:ARP:1,2017-12-01T18:12:00Z,28.4330,-82.6670,10.0,1.32,328.19,2.74,'1111122,1111122,1111122' 
COMPS,ioos:station:USF.COMPS:ARP:1,2017-12-01T18:18:00Z,28.4330,-82.6670,10.0,1.14,330.7,4.11,'1111122,1111122,1111122' 
COMPS,ioos:station:USF.COMPS:ARP:1,2017-12-01T18:24:00Z,28.4330,-82.6670,10.0,1.34,320.66,3.72,'1111122,1111122,1111122' 
COMPS,ioos:station:USF.COMPS:ARP:1,2017-12-01T18:30:00Z,28.4330,-82.6670,10.0,1.61,333.07,3.23,'1111122,1111122,1111122' 
COMPS,ioos:station:USF.COMPS:ARP:1,2017-12-01T18:36:00Z,28.4330,-82.6670,10.0,1.71,326.68,3.62,'1111122,1111122,1111122' 
COMPS,ioos:station:USF.COMPS:ARP:1,2017-12-01T18:42:00Z,28.4330,-82.6670,10.0,2.1,325.92,3.33,'1111122,1111122,1111122' 
COMPS,ioos:station:USF.COMPS:ARP:1,2017-12-01T18:48:00Z,28.4330,-82.6670,10.0,1.96,324.08,3.82,'1111122,1111122,1111122' 
COMPS,ioos:station:USF.COMPS:ARP:1,2017-12-01T18:54:00Z,28.4330,-82.6670,10.0,1.81,319.39,3.42,'1111122,1111122,1111122' 
COMPS,ioos:station:USF.COMPS:ARP:1,2017-12-01T19:00:00Z,28.4330,-82.6670,10.0,1.92,317.86,3.82,'1111122,1111122,1111122' 
COMPS,ioos:station:USF.COMPS:ARP:1,2017-12-01T19:06:00Z,28.4330,-82.6670,10.0,1.53,324.19,3.33,'1111122,1111122,1111122' 
COMPS,ioos:station:USF.COMPS:ARP:1,2017-12-01T19:12:00Z,28.4330,-82.6670,10.0,1.32,324.29,3.62,'1111122,1111122,1111122' 
COMPS,ioos:station:USF.COMPS:ARP:1,2017-12-01T19:18:00Z,28.4330,-82.6670,10.0,1.29,350.54,3.13,'1111122,1111122,1111122' 
COMPS,ioos:station:USF.COMPS:ARP:1,2017-12-01T19:24:00Z,28.4330,-82.6670,10.0,1.49,337.02,3.72,'1111122,1111122,1111122' 
COMPS,ioos:station:USF.COMPS:ARP:1,2017-12-01T19:30:00Z,28.4330,-82.6670,10.0,1.82,338.54,3.42,'1111122,1111122,1111122' 
COMPS,ioos:station:USF.COMPS:ARP:1,2017-12-01T19:36:00Z,28.4330,-82.6670,10.0,1.96,344.87,3.91,'1111122,1111122,1111122' 
COMPS,ioos:station:USF.COMPS:ARP:1,2017-12-01T19:42:00Z,28.4330,-82.6670,10.0,1.88,343.12,3.82,'1111122,1111122,1111122' 
COMPS,ioos:station:USF.COMPS:ARP:1,2017-12-01T19:48:00Z,28.4330,-82.6670,10.0,1.48,354.46,3.62,'1111122,1111122,1111122' 
COMPS,ioos:station:USF.COMPS:ARP:1,2017-12-01T19:54:00Z,28.4330,-82.6670,10.0,1.81,351.34,3.33,'1111122,1111122,1111122' 